Location: Azul
(36.7830°S, 59.8500°W)
Time: 09:37:35
(UTC-03:00)

ISS - Pass Details

Date: 03 December 2019
Orbit: 411 x 421 km, 51.6° (Epoch: 11 December)

Event Time Altitude Azimuth Distance (km) Brightness Sun altitude
Exits shadow 03:28:16 35° 232° (SW) 716 -2.7 -20.2°
Maximum altitude 03:28:39 36° 215° (SW) 697 -2.6 -20.1°
Drops below altitude 10° 03:31:51 10° 146° (SE) 1,525 0.3 -19.7°
Sets 03:34:05 0° 137° (SE) 2,393 1.7 -19.4°
